NOZ1127 ENGM-EDDH

Flight info

Callsign NOZ1127
Flight time 1h 7m
Altitude 35000
Route VIPPA DCT AAL DCT LUTUS/N0443F360 P615 ALS M852 ALASA/N0442F350 M852 EKERN T905 BOGMU BOGMU3D
Aircraft B38M/M-SDE1FGHILORVWXY/HB1

Departure

Time 2026-05-01 11:52
Airport Oslo-Gardermoen International Airport (ENGM)

Arrival

Time 2026-05-01 13:00
Airport Hamburg Helmut Schmidt Airport (EDDH)
Time Latitude Longitude Altitude Speed Heading
2026-05-01 11:30 60.19671 11.09973 687 ft 0 kts 106°
2026-05-01 11:41 60.19672 11.09960 687 ft 2 kts 106°
2026-05-01 11:42 60.19678 11.09922 685 ft 3 kts 106°
2026-05-01 11:42 60.19684 11.09883 681 ft 3 kts 106°
2026-05-01 11:42 60.19689 11.09844 684 ft 2 kts 106°
2026-05-01 11:42 60.19694 11.09812 683 ft 3 kts 117°
2026-05-01 11:43 60.19705 11.09784 679 ft 3 kts 152°
2026-05-01 11:43 60.19723 11.09777 685 ft 3 kts 188°
2026-05-01 11:43 60.19741 11.09786 684 ft 2 kts 196°
2026-05-01 11:44 60.19748 11.09790 682 ft 0 kts 196°
2026-05-01 11:45 60.19746 11.09788 683 ft 1 kts 196°
2026-05-01 11:46 60.19732 11.09773 683 ft 4 kts 220°
2026-05-01 11:46 60.19716 11.09674 685 ft 12 kts 275°
2026-05-01 11:46 60.19742 11.09498 683 ft 14 kts 286°
2026-05-01 11:46 60.19770 11.09299 684 ft 15 kts 285°
2026-05-01 11:47 60.19801 11.09083 683 ft 17 kts 286°
2026-05-01 11:47 60.19838 11.08827 680 ft 21 kts 285°
2026-05-01 11:47 60.19886 11.08594 681 ft 16 kts 332°
2026-05-01 11:47 60.19994 11.08630 682 ft 16 kts 16°
2026-05-01 11:48 60.20106 11.08695 682 ft 17 kts 16°
2026-05-01 11:48 60.20224 11.08764 683 ft 18 kts 16°
2026-05-01 11:48 60.20348 11.08835 681 ft 19 kts 16°
2026-05-01 11:48 60.20481 11.08911 684 ft 21 kts 16°
2026-05-01 11:49 60.20614 11.08990 681 ft 18 kts 24°
2026-05-01 11:49 60.20669 11.09186 683 ft 16 kts 26°
2026-05-01 11:49 60.20780 11.09254 684 ft 17 kts 16°
2026-05-01 11:49 60.20896 11.09319 687 ft 18 kts 15°
2026-05-01 11:50 60.21023 11.09392 688 ft 20 kts 16°
2026-05-01 11:50 60.21167 11.09476 689 ft 23 kts 16°
2026-05-01 11:50 60.21329 11.09568 689 ft 25 kts 15°
2026-05-01 11:50 60.21493 11.09633 688 ft 23 kts 342°
2026-05-01 11:51 60.21560 11.09407 685 ft 16 kts 285°
2026-05-01 11:51 60.21578 11.09190 681 ft 16 kts 250°
2026-05-01 11:51 60.21480 11.09091 684 ft 18 kts 197°
2026-05-01 11:51 60.21303 11.08980 685 ft 38 kts 198°
2026-05-01 11:52 60.20788 11.08687 682 ft 113 kts 196°
2026-05-01 11:52 60.19841 11.08155 791 ft 160 kts 199°
2026-05-01 11:52 60.18733 11.07516 1495 ft 163 kts 199°
2026-05-01 11:52 60.17703 11.06832 2595 ft 155 kts 205°
2026-05-01 11:53 60.16807 11.05490 3064 ft 170 kts 232°
2026-05-01 11:53 60.16160 11.03364 3384 ft 188 kts 241°
2026-05-01 11:53 60.15532 11.00921 3576 ft 207 kts 244°
2026-05-01 11:53 60.14873 10.98248 3704 ft 220 kts 244°
2026-05-01 11:54 60.14192 10.95367 3911 ft 236 kts 245°
2026-05-01 11:54 60.13465 10.92293 4058 ft 244 kts 245°
2026-05-01 11:54 60.12737 10.89182 4101 ft 247 kts 245°
2026-05-01 11:54 60.12010 10.86057 4190 ft 248 kts 245°
2026-05-01 11:55 60.11294 10.82972 4279 ft 248 kts 246°
2026-05-01 11:55 60.10570 10.79840 4244 ft 247 kts 246°
2026-05-01 11:55 60.09850 10.76728 4308 ft 246 kts 246°
2026-05-01 11:55 60.09129 10.73615 4337 ft 248 kts 246°
2026-05-01 11:56 60.08400 10.70474 4306 ft 248 kts 246°
2026-05-01 11:56 60.07912 10.68370 4353 ft 246 kts 246°
2026-05-01 11:56 60.07183 10.65261 4352 ft 247 kts 242°
2026-05-01 11:56 60.06097 10.62605 4296 ft 251 kts 217°
2026-05-01 11:57 60.04518 10.61137 5116 ft 252 kts 197°
2026-05-01 11:57 60.02816 10.60207 6043 ft 254 kts 217°
2026-05-01 11:57 60.01356 10.58442 7320 ft 242 kts 210°
2026-05-01 11:57 59.99713 10.57422 8178 ft 259 kts 192°
2026-05-01 11:58 59.97892 10.57129 8904 ft 269 kts 193°
2026-05-01 11:58 59.96047 10.56629 9912 ft 267 kts 194°
2026-05-01 11:58 59.92232 10.55214 11095 ft 295 kts 198°
2026-05-01 11:59 59.90196 10.54330 11545 ft 311 kts 198°
2026-05-01 11:59 59.88017 10.53354 12166 ft 320 kts 198°
2026-05-01 11:59 59.85843 10.52366 13081 ft 321 kts 199°
2026-05-01 12:00 59.81466 10.50355 14554 ft 328 kts 199°
2026-05-01 12:00 59.79263 10.49339 15228 ft 331 kts 199°
2026-05-01 12:00 59.74688 10.47231 16551 ft 339 kts 199°
2026-05-01 12:01 59.72382 10.46172 17197 ft 343 kts 199°
2026-05-01 12:01 59.70049 10.45100 17836 ft 345 kts 199°
2026-05-01 12:01 59.67698 10.44023 18474 ft 349 kts 199°
2026-05-01 12:01 59.65319 10.42934 18994 ft 353 kts 199°
2026-05-01 12:02 59.62919 10.41838 19552 ft 355 kts 199°
2026-05-01 12:02 59.60495 10.40731 20042 ft 359 kts 199°
2026-05-01 12:02 59.58023 10.39770 20571 ft 365 kts 195°
2026-05-01 12:02 59.55510 10.38944 21068 ft 368 kts 195°
2026-05-01 12:03 59.52974 10.38092 21567 ft 371 kts 195°
2026-05-01 12:03 59.50420 10.37225 22082 ft 374 kts 195°
2026-05-01 12:03 59.47842 10.36348 22552 ft 378 kts 195°
2026-05-01 12:03 59.45241 10.35466 23015 ft 381 kts 195°
2026-05-01 12:04 59.42615 10.34574 23489 ft 385 kts 194°
2026-05-01 12:04 59.39966 10.33677 23940 ft 388 kts 194°
2026-05-01 12:04 59.37297 10.32774 24339 ft 391 kts 194°
2026-05-01 12:04 59.34607 10.31866 24737 ft 393 kts 194°
2026-05-01 12:05 59.31902 10.30954 25139 ft 396 kts 194°
2026-05-01 12:05 59.26441 10.29117 25917 ft 401 kts 194°
2026-05-01 12:05 59.23689 10.28193 26304 ft 403 kts 194°
2026-05-01 12:06 59.20916 10.27265 26668 ft 406 kts 194°
2026-05-01 12:06 59.18126 10.26332 27017 ft 408 kts 193°
2026-05-01 12:06 59.15278 10.25807 27370 ft 414 kts 187°
2026-05-01 12:06 59.12402 10.25463 27739 ft 416 kts 188°
2026-05-01 12:07 59.09508 10.25070 28064 ft 418 kts 188°
2026-05-01 12:07 59.06599 10.24654 28423 ft 420 kts 188°
2026-05-01 12:07 59.03675 10.24226 28735 ft 423 kts 188°
2026-05-01 12:07 59.00730 10.23794 29029 ft 426 kts 188°
2026-05-01 12:08 58.97771 10.23361 29353 ft 428 kts 188°
2026-05-01 12:08 58.94791 10.22932 29704 ft 430 kts 188°
2026-05-01 12:08 58.91798 10.22538 30015 ft 433 kts 188°
2026-05-01 12:08 58.88787 10.22139 30272 ft 435 kts 187°
2026-05-01 12:09 58.85754 10.21735 30525 ft 438 kts 187°
2026-05-01 12:09 58.82747 10.21335 30802 ft 439 kts 187°
2026-05-01 12:09 58.79693 10.20931 31067 ft 441 kts 187°
2026-05-01 12:09 58.76622 10.20525 31333 ft 443 kts 187°
2026-05-01 12:10 58.73547 10.20119 31606 ft 444 kts 187°
2026-05-01 12:10 58.67355 10.19304 32186 ft 446 kts 187°
2026-05-01 12:10 58.64264 10.18898 32554 ft 445 kts 187°
2026-05-01 12:11 58.58090 10.18090 33189 ft 445 kts 187°
2026-05-01 12:11 58.55008 10.17687 33545 ft 444 kts 187°
2026-05-01 12:11 58.51931 10.17286 33903 ft 443 kts 187°
2026-05-01 12:12 58.48862 10.16886 34235 ft 442 kts 187°
2026-05-01 12:12 58.45801 10.16489 34551 ft 441 kts 187°
2026-05-01 12:12 58.42746 10.16093 34823 ft 440 kts 187°
2026-05-01 12:12 58.39692 10.15697 35100 ft 440 kts 187°
2026-05-01 12:13 58.36636 10.15302 35292 ft 441 kts 187°
2026-05-01 12:13 58.33576 10.14907 35300 ft 440 kts 187°
2026-05-01 12:13 58.27487 10.14124 35317 ft 438 kts 187°
2026-05-01 12:14 58.21401 10.13344 35314 ft 438 kts 187°
2026-05-01 12:14 58.15312 10.12565 35317 ft 439 kts 187°
2026-05-01 12:15 58.09221 10.11790 35309 ft 438 kts 187°
2026-05-01 12:15 58.03136 10.11018 35327 ft 439 kts 186°
2026-05-01 12:16 57.97042 10.10247 35325 ft 439 kts 186°
2026-05-01 12:16 57.90949 10.09479 35335 ft 439 kts 186°
2026-05-01 12:17 57.84857 10.08713 35342 ft 439 kts 186°
2026-05-01 12:17 57.78760 10.07950 35319 ft 439 kts 186°
2026-05-01 12:18 57.72649 10.07188 35340 ft 441 kts 186°
2026-05-01 12:18 57.66573 10.06432 35339 ft 441 kts 186°
2026-05-01 12:19 57.60455 10.05674 35345 ft 441 kts 186°
2026-05-01 12:19 57.54335 10.04918 35346 ft 441 kts 186°
2026-05-01 12:20 57.48215 10.04165 35345 ft 441 kts 186°
2026-05-01 12:20 57.42085 10.03412 35350 ft 441 kts 186°
2026-05-01 12:21 57.35960 10.02663 35357 ft 441 kts 186°
2026-05-01 12:21 57.29831 10.01916 35361 ft 441 kts 186°
2026-05-01 12:22 57.26767 10.01544 35206 ft 440 kts 186°
2026-05-01 12:22 57.23719 10.01174 35328 ft 439 kts 185°
2026-05-01 12:22 57.17575 10.00429 35368 ft 443 kts 185°
2026-05-01 12:23 57.11433 9.99692 35374 ft 442 kts 184°
2026-05-01 12:23 57.05271 9.99719 35389 ft 444 kts 181°
2026-05-01 12:24 56.99104 9.99717 35371 ft 443 kts 181°
2026-05-01 12:24 56.92939 9.99699 35349 ft 444 kts 181°
2026-05-01 12:25 56.83666 9.99671 35349 ft 449 kts 181°
2026-05-01 12:26 56.77340 9.99649 35345 ft 458 kts 181°
2026-05-01 12:26 56.67791 9.99620 35337 ft 457 kts 181°
2026-05-01 12:27 56.58243 9.99591 35351 ft 457 kts 181°
2026-05-01 12:28 56.48702 9.99563 35353 ft 457 kts 181°
2026-05-01 12:29 56.39161 9.99535 35352 ft 456 kts 180°
2026-05-01 12:29 56.29637 9.99506 35358 ft 456 kts 180°
2026-05-01 12:30 56.20110 9.99477 35357 ft 456 kts 181°
2026-05-01 12:31 56.13811 9.99459 35356 ft 456 kts 180°
2026-05-01 12:31 56.07461 9.99451 35364 ft 456 kts 180°
2026-05-01 12:32 56.01120 9.99449 35363 ft 455 kts 181°
2026-05-01 12:32 55.91608 9.99446 35370 ft 456 kts 180°
2026-05-01 12:33 55.85263 9.99440 35369 ft 456 kts 180°
2026-05-01 12:33 55.78920 9.99437 35371 ft 456 kts 180°
2026-05-01 12:34 55.72567 9.99432 35368 ft 456 kts 180°
2026-05-01 12:34 55.66222 9.99427 35370 ft 456 kts 180°
2026-05-01 12:35 55.59875 9.99421 35369 ft 457 kts 180°
2026-05-01 12:35 55.53525 9.99414 35376 ft 456 kts 180°
2026-05-01 12:36 55.47222 9.99407 35377 ft 449 kts 180°
2026-05-01 12:36 55.40966 9.99399 35380 ft 449 kts 180°
2026-05-01 12:37 55.34715 9.99391 35379 ft 449 kts 180°
2026-05-01 12:37 55.28456 9.99383 35383 ft 450 kts 180°
2026-05-01 12:38 55.22183 9.99375 35388 ft 450 kts 180°
2026-05-01 12:38 55.19071 9.99372 35119 ft 445 kts 179°
2026-05-01 12:38 55.15958 9.99371 34145 ft 449 kts 179°
2026-05-01 12:39 55.12841 9.99367 33101 ft 446 kts 179°
2026-05-01 12:39 55.09747 9.99363 32160 ft 442 kts 179°
2026-05-01 12:39 55.06690 9.99360 31267 ft 437 kts 179°
2026-05-01 12:39 55.03661 9.99356 30406 ft 433 kts 179°
2026-05-01 12:40 55.00669 9.99352 29431 ft 428 kts 179°
2026-05-01 12:40 54.97708 9.99349 28505 ft 423 kts 179°
2026-05-01 12:40 54.94818 9.99345 27629 ft 418 kts 180°
2026-05-01 12:40 54.91925 9.99342 26784 ft 413 kts 180°
2026-05-01 12:41 54.89077 9.98973 25931 ft 409 kts 191°
2026-05-01 12:41 54.86312 9.97990 25196 ft 403 kts 190°
2026-05-01 12:41 54.83556 9.97302 24432 ft 398 kts 187°
2026-05-01 12:41 54.80829 9.96681 23687 ft 393 kts 187°
2026-05-01 12:42 54.78137 9.96048 22868 ft 388 kts 187°
2026-05-01 12:42 54.75479 9.95412 22080 ft 384 kts 187°
2026-05-01 12:42 54.72849 9.94782 21311 ft 379 kts 187°
2026-05-01 12:42 54.71126 9.94370 20827 ft 377 kts 187°
2026-05-01 12:43 54.68537 9.93751 19999 ft 375 kts 188°
2026-05-01 12:43 54.65942 9.93132 19132 ft 377 kts 188°
2026-05-01 12:43 54.63365 9.92517 18472 ft 371 kts 188°
2026-05-01 12:43 54.60821 9.91911 17660 ft 367 kts 188°
2026-05-01 12:44 54.58304 9.91313 16929 ft 363 kts 187°
2026-05-01 12:44 54.55824 9.90723 16220 ft 358 kts 187°
2026-05-01 12:44 54.50887 9.89552 14450 ft 359 kts 187°
2026-05-01 12:45 54.46036 9.88404 13102 ft 345 kts 187°
2026-05-01 12:45 54.43704 9.87853 12728 ft 331 kts 187°
2026-05-01 12:45 54.41477 9.87327 12413 ft 316 kts 187°
2026-05-01 12:46 54.39341 9.86824 12087 ft 303 kts 187°
2026-05-01 12:46 54.37288 9.86341 11789 ft 294 kts 187°
2026-05-01 12:46 54.35270 9.85866 11484 ft 291 kts 187°
2026-05-01 12:46 54.33275 9.85398 11388 ft 289 kts 186°
2026-05-01 12:47 54.31270 9.84927 11376 ft 291 kts 186°
2026-05-01 12:47 54.29306 9.84466 11330 ft 280 kts 186°
2026-05-01 12:47 54.27384 9.84016 11018 ft 278 kts 186°
2026-05-01 12:47 54.25478 9.83569 10657 ft 274 kts 186°
2026-05-01 12:48 54.23608 9.83132 10241 ft 269 kts 186°
2026-05-01 12:48 54.21771 9.82703 9881 ft 265 kts 186°
2026-05-01 12:48 54.19951 9.82277 9567 ft 263 kts 186°
2026-05-01 12:48 54.18143 9.81858 9284 ft 261 kts 186°
2026-05-01 12:49 54.16354 9.81440 8999 ft 258 kts 186°
2026-05-01 12:49 54.14586 9.81028 8715 ft 255 kts 186°
2026-05-01 12:49 54.12859 9.80627 8434 ft 246 kts 186°
2026-05-01 12:49 54.11194 9.80239 8181 ft 238 kts 186°
2026-05-01 12:50 54.09576 9.79863 7973 ft 238 kts 186°
2026-05-01 12:50 54.07935 9.79484 7735 ft 238 kts 186°
2026-05-01 12:50 54.06300 9.79106 7468 ft 237 kts 186°
2026-05-01 12:50 54.04682 9.78729 7367 ft 234 kts 186°
2026-05-01 12:51 54.03105 9.78020 7155 ft 237 kts 200°
2026-05-01 12:51 54.01599 9.76858 6874 ft 239 kts 203°
2026-05-01 12:51 53.98586 9.74344 6204 ft 242 kts 204°
2026-05-01 12:52 53.97032 9.73383 5979 ft 236 kts 188°
2026-05-01 12:52 53.93836 9.72791 5600 ft 229 kts 184°
2026-05-01 12:52 53.92258 9.72542 5362 ft 227 kts 184°
2026-05-01 12:53 53.89156 9.72473 4778 ft 224 kts 162°
2026-05-01 12:53 53.87835 9.73791 4562 ft 220 kts 136°
2026-05-01 12:53 53.86930 9.75792 4517 ft 208 kts 124°
2026-05-01 12:54 53.86175 9.77792 4470 ft 197 kts 124°
2026-05-01 12:54 53.84320 9.81035 4026 ft 195 kts 154°
2026-05-01 12:54 53.83120 9.82052 3816 ft 192 kts 152°
2026-05-01 12:55 53.80824 9.84138 3371 ft 182 kts 151°
2026-05-01 12:55 53.79740 9.85125 3167 ft 173 kts 151°
2026-05-01 12:55 53.78688 9.86083 2934 ft 170 kts 152°
2026-05-01 12:56 53.77644 9.86978 2664 ft 167 kts 152°
2026-05-01 12:56 53.76611 9.87836 2604 ft 165 kts 153°
2026-05-01 12:56 53.75592 9.88706 2348 ft 165 kts 152°
2026-05-01 12:56 53.74563 9.89608 2123 ft 164 kts 152°
2026-05-01 12:57 53.73575 9.90459 1881 ft 160 kts 152°
2026-05-01 12:57 53.71679 9.92104 1465 ft 143 kts 153°
2026-05-01 12:57 53.70807 9.92875 1317 ft 141 kts 151°
2026-05-01 12:58 53.69945 9.93652 999 ft 139 kts 153°
2026-05-01 12:58 53.69074 9.94369 758 ft 141 kts 154°
2026-05-01 12:58 53.68202 9.95106 650 ft 140 kts 151°
2026-05-01 12:59 53.66459 9.96655 312 ft 142 kts 152°
2026-05-01 12:59 53.65561 9.97406 173 ft 144 kts 153°
2026-05-01 12:59 53.64013 9.98752 49 ft 88 kts 151°
2026-05-01 13:00 53.63375 9.99309 53 ft 28 kts 146°
2026-05-01 13:00 53.63290 9.99533 51 ft 15 kts 102°